Regional Weather Roundup
Issued by NWS Green Bay, WI

Home | Current Version | Previous Version | Text Only | Print | Product List | Glossary On
Versions: 1 2 3 4 5 6 7 8 9 10 11 12 13 14 15 16 17 18 19 20 21 22 23 24 25 26 27 28 29 30 31 32 33 34 35 36 37 38 39 40 41 42 43 44 45 46 47 48 49 50
000
ASUS43 KGRB 281110
RWRGRB

NORTH-CENTRAL AND NORTHEAST WISCONSIN REGIONAL WEATHER ROUNDUP
NATIONAL WEATHER SERVICE GREEN BAY WI
600 AM CDT SAT MAR 28 2015

WIZ005-009-010>012-018-019-281200-
NORTH CENTRAL WISCONSIN

CITY           SKY/WX    TMP DP  RH WIND       PRES   REMARKS
IRONWOOD       CLEAR      3   1  92 CALM      30.17R
MANITOWISH WTR CLEAR      4   1  88 CALM      30.18R
ARBOR VITAE    CLEAR      8   3  83 CALM      30.17S
EAGLE RIVER    CLEAR      1  -4  80 CALM      30.19R
LAND O LAKES   CLEAR     -7 -11  80 CALM      30.19R
RHINELANDER    CLEAR      6   2  83 CALM      30.18R
PHILLIPS       CLEAR     10   6  86 CALM      30.17R
ANTIGO         CLEAR     11   5  75 S5        30.20R WCI   3
TOMAHAWK       CLEAR      5   2  88 CALM      30.19S
MERRILL        CLEAR      8   5  89 CALM      30.20S
$$

WIZ013-073-281200-
NORTHEAST WISCONSIN

CITY           SKY/WX    TMP DP  RH WIND       PRES   REMARKS
IRON MOUNTAIN  CLEAR      1  -5  75 CALM      30.22R
MARINETTE      CLEAR     10   5  79 CALM      30.27R
OCONTO         CLEAR      8   6  90 CALM      30.28R
$$

WIZ017-030-035>037-045-281200-
CENTRAL WISCONSIN

CITY           SKY/WX    TMP DP  RH WIND       PRES   REMARKS
MEDFORD        CLEAR     13  10  87 SE3       30.18R
WAUSAU         CLEAR     13   9  84 E3        30.20R
MOSINEE        CLEAR     12   9  85 E3        30.22R
MARSHFIELD     CLEAR     16  10  77 CALM      30.21R
WISC RAPIDS    CLEAR     11   5  77 CALM      30.24R
STEVENS POINT  CLEAR      8   4  86 CALM      30.23R
WAUPACA        CLEAR     16  13  86 CALM      30.26R
SHAWANO        CLEAR     13  10  87 CALM      30.27R
CLINTONVILLE   CLEAR     14  10  85 CALM      30.26R
$$

WIZ038-039-048-051-281200-
FOX VALLEY

CITY           SKY/WX    TMP DP  RH WIND       PRES   REMARKS
NWS GREEN BAY  CLEAR     18  10  71 CALM      30.27R
APPLETON       CLEAR     16  10  79 VRB3      30.26R
OSHKOSH        CLEAR     15  11  83 CALM      30.26R
FOND DU LAC    CLEAR     13   8  81 CALM      30.26R
$$

WIZ022-050-052-281200-
EAST CENTRAL WISCONSIN

CITY           SKY/WX    TMP DP  RH WIND       PRES   REMARKS
STURGEON BAY   CLEAR     14   3  62 CALM      30.29R
MANITOWOC      CLEAR     15  11  83 CALM      30.28R
SHEBOYGAN      CLEAR     15  11  83 CALM      30.26R
$$

LMZ563-521-522-541>543-281200-
LAKESHORE

STATION/POSITION TIME  TEMP    WIND        PRES    VSBY  WAVE
                       AIR SEA DIR/SP/G                  HT/PER
                 (UTC) (F)     (DEG/KT/KT) (MB)    (MI)  (FT/S)
SHEBOYGAN LKSHOR 1100   20     300/  8/  9 1026.4R
KEWAUNEE LKSHORE 1100   16     300/  2/  4 1024.1R
NORTHPORT PIER   1100   15     310/  4/  5 1025.4R
SISTER BAY LKSHO 1100   11        CALM       N/A
CHAMBERS ISLAND  1100    9        CALM     1025.1R
MENOMINEE LKSHOR 1100   14     320/  3     1026.0R
$$



USA.gov is the U.S. government's official web portal to all federal, state and local government web resources and services.